Regional Weather Roundup
Issued by NWS State College, PA

Home | Current Version | Previous Version | Graphics & Text | Print | Product List | Glossary On
Versions: 1 2 3 4 5 6 7 8 9 10 11 12 13 14 15 16 17 18 19 20 21 22 23 24 25 26 27 28 29 30 31 32 33 34 35 36 37 38 39 40 41 42 43 44 45 46 47 48 49 50
000
ASUS41 KCTP 291203
RWRCTP

REGIONAL WEATHER ROUNDUP
NATIONAL WEATHER SERVICE STATE COLLEGE PA
800 AM EDT WED JUL 29 2015

Note: "fair" indicates few or no clouds below 12,000 feet with no
significant weather and/or obstructions to visibility.

* = STATION THAT DOES NOT REPORT PRECIPITATION /E.G. RAIN...SNOW...ETC/
    THUNDER OR FOG.

PAZ002>004-007>009-013>016-020>023-029>032-291300-
WESTERN PENNSYLVANIA

CITY           SKY/WX    TMP DP  RH WIND       PRES   REMARKS
ERIE           MOSUNNY   73  61  65 VRB3      29.98S
MEADVILLE      MOSUNNY   72  61  68 VRB3      30.03R
FRANKLIN*      MOSUNNY   64  61  88 NE3       30.05R
NEW CASTLE     FAIR      69  67  93 CALM      30.02R
BEAVER COUNTY  SUNNY     70  64  83 CALM      30.01
BUTLER*        SUNNY     70  64  83 CALM      30.03S
PITTSBURGH INT PTSUNNY   73  66  78 E3        30.00S
PITTSBURGH     SUNNY     73  65  75 CALM      30.00S
INDIANA*       SUNNY     70  64  83 E3        30.06S
LATROBE        MOSUNNY   70  70 100 VRB5      30.02S FOG
WASHINGTON CO* NOT AVBL
$$

PAZ004>006-010>012-017>019-024>028-033>037-041-042-045-046-049>053-291300-
CENTRAL PENNSYLVANIA

CITY           SKY/WX    TMP DP  RH WIND       PRES   REMARKS
BRADFORD       SUNNY     64  60  87 CALM      30.08R
DUBOIS         SUNNY     67  61  81 E3        30.05S HAZE
CLEARFIELD     PTSUNNY   63  60  90 NE3       30.06S FOG
JOHNSTOWN      SUNNY     70  65  84 CALM      30.07S HAZE
ALTOONA        SUNNY     68  64  87 CALM      30.06R FOG
STATE COLLEGE  FOG       63  63 100 CALM      30.05R VSB 1/2
WILLIAMSPORT   SUNNY     68  63  84 CALM      30.02S
SELINSGROVE    MOSUNNY   69  67  93 VRB3      30.03R FOG
FT INDIANTOWN  PTSUNNY   72  68  89 CALM      30.01R
CAPITAL CITY   SUNNY     75  67  76 CALM      30.01R
HARRISBURG     PTSUNNY   75  70  84 S3        30.01R HAZE
YORK           SUNNY     73  70  90 CALM      30.02R FOG
$$

PAZ038>040-043-044-047-048-054-055-060>062-067>071-291300-
EASTERN PENNSYLVANIA

CITY           SKY/WX    TMP DP  RH WIND       PRES   REMARKS
SCRANTON       MOSUNNY   70  63  78 CALM      30.05R
MOUNT POCONO   MOSUNNY   70  66  87 CALM      30.08S
ALLENTOWN      SUNNY     74  67  78 CALM      30.01S
QUAKERTOWN*    SUNNY     75  68  78 CALM      30.02S
READING        SUNNY     74  68  81 CALM      30.00R
LANCASTER      SUNNY     72  69  90 CALM      30.01R FOG
COATESVILLE    SUNNY     77  73  88 CALM      30.03R
POTTSTOWN      SUNNY     73  70  90 CALM      30.02S
BLUE BELL      SUNNY     77  72  83 CALM      29.99S
DOYLESTOWN     SUNNY     75  69  81 NE3       30.00S
WILLOW GROVE   NOT AVBL
NORTH PHILA    SUNNY     82  68  62 CALM      30.01R
PHILADELPHIA   MOSUNNY   82  70  66 CALM      30.00R
$$



USA.gov is the U.S. government's official web portal to all federal, state and local government web resources and services.